| time (UTC) | temp C | wind direction | speed KPH | gust KPH | rain 1hr cm | rain 24hr cm | rain mn cm | humidity % | barometer mb |
| 20260905184519 | 36 | 227 | 0.0 | 12.9 | 0.00 | 0.00 | 0.00 | 40 | 1014.3 |
| 20260905183010 | 36 | 222 | 0.0 | 11.3 | 0.00 | 0.00 | 0.00 | 41 | 1014.4 |
| 20260905181509 | 36 | 149 | 1.6 | 8.0 | 0.00 | 0.00 | 0.00 | 45 | 1014.7 |
| 20260905180016 | 36 | 80 | 1.6 | 4.8 | 0.00 | 0.00 | 0.00 | 46 | 1015.0 |
| 20260905174511 | 35 | 200 | 1.6 | 6.4 | 0.00 | 0.00 | 0.00 | 46 | 1015.3 |
| 20260905173011 | 35 | 156 | 0.0 | 9.7 | 0.00 | 0.00 | 0.00 | 48 | 1015.5 |
| 20260905171515 | 33 | 86 | 0.0 | 6.4 | 0.00 | 0.00 | 0.00 | 51 | 1015.6 |
| 20260905170012 | 31 | 236 | 1.6 | 8.0 | 0.00 | 0.00 | 0.00 | 61 | 1015.8 |
| 20260905164516 | 32 | 123 | 1.6 | 12.9 | 0.00 | 0.00 | 0.00 | 57 | 1015.9 |
| 20260905163018 | 32 | 72 | 1.6 | 12.9 | 0.00 | 0.00 | 0.00 | 58 | 1015.9 |
| 20260905161518 | 32 | 257 | 1.6 | 12.9 | 0.00 | 0.00 | 0.00 | 61 | 1015.9 |
| 20260905160021 | 31 | 200 | 1.6 | 6.4 | 0.00 | 0.00 | 0.00 | 62 | 1015.9 |
| 20260905154519 | 30 | 220 | 1.6 | 11.3 | 0.00 | 0.00 | 0.00 | 68 | 1015.9 |
| 20260905153003 | 29 | 246 | 3.2 | 8.0 | 0.00 | 0.00 | 0.00 | 70 | 1015.9 |
| 20260905151508 | 28 | 269 | 0.0 | 4.8 | 0.00 | 0.00 | 0.00 | 75 | 1016.0 |
| 20260905150008 | 28 | 91 | 1.6 | 6.4 | 0.00 | 0.00 | 0.00 | 76 | 1016.0 |
| 20260905144521 | 28 | 295 | 3.2 | 12.9 | 0.00 | 0.00 | 0.00 | 78 | 1015.9 |
| 20260905143027 | 27 | 265 | 0.0 | 6.4 | 0.00 | 0.00 | 0.00 | 83 | 1016.1 |
| 20260905141504 | 26 | 234 | 0.0 | 9.7 | 0.00 | 0.00 | 0.00 | 85 | 1015.8 |
| 20260905140006 | 26 | 283 | 0.0 | 3.2 | 0.00 | 0.00 | 0.00 | 87 | 1015.6 |
| 20260905134509 | 26 | 255 | 0.0 | 3.2 | 0.00 | 0.00 | 0.00 | 91 | 1015.5 |
| 20260905133018 | 25 | 83 | 0.0 | 4.8 | 0.00 | 0.00 | 0.00 | 92 | 1015.4 |
| 20260905131524 | 24 | 117 | 0.0 | 3.2 | 0.00 | 0.00 | 0.00 | 92 | 1015.2 |
| 20260905130007 | 24 | 121 | 0.0 | 3.2 | 0.00 | 0.00 | 0.00 | 92 | 1015.0 |
| 20260905124520 | 23 | 271 | 0.0 | 0.0 | 0.00 | 0.00 | 0.00 | 92 | 1014.9 |
| 20260905123018 | 23 | 271 | 0.0 | 0.0 | 0.00 | 0.00 | 0.00 | 92 | 1014.7 |
| 20260905121524 | 23 | 271 | 0.0 | 0.0 | 0.00 | 0.00 | 0.00 | 92 | 1014.7 |
| 20260905120031 | 23 | 271 | 0.0 | 0.0 | 0.00 | 0.00 | 0.00 | 92 | 1014.3 |
| 20260905114511 | 23 | 271 | 0.0 | 0.0 | 0.00 | 0.00 | 0.00 | 92 | 1014.4 |
| 20260905113015 | 23 | 271 | 0.0 | 0.0 | 0.00 | 0.00 | 0.00 | 92 | 1014.4 |
| 20260905111522 | 23 | 271 | 0.0 | 0.0 | 0.00 | 0.00 | 0.00 | 91 | 1014.3 |
| 20260905110028 | 24 | 271 | 0.0 | 0.0 | 0.00 | 0.00 | 0.00 | 91 | 1014.2 |
| 20260905104536 | 24 | 271 | 0.0 | 0.0 | 0.00 | 0.00 | 0.00 | 91 | 1014.3 |
| 20260905103011 | 24 | 271 | 0.0 | 0.0 | 0.00 | 0.00 | 0.00 | 91 | 1014.3 |
| 20260905101517 | 24 | 271 | 0.0 | 0.0 | 0.00 | 0.00 | 0.00 | 90 | 1014.4 |
| 20260905100025 | 24 | 271 | 0.0 | 3.2 | 0.00 | 0.00 | 0.00 | 90 | 1014.2 |
| 20260905094527 | 24 | 271 | 0.0 | 0.0 | 0.00 | 0.00 | 0.00 | 89 | 1014.0 |
| 20260905093032 | 25 | 271 | 0.0 | 0.0 | 0.00 | 0.00 | 0.00 | 88 | 1014.1 |
| 20260905091516 | 25 | 271 | 0.0 | 3.2 | 0.00 | 0.00 | 0.00 | 88 | 1014.2 |
| 20260905090023 | 25 | 195 | 0.0 | 3.2 | 0.00 | 0.00 | 0.00 | 87 | 1014.2 |
| 20260905084503 | 25 | 171 | 0.0 | 3.2 | 0.00 | 0.00 | 0.00 | 87 | 1014.2 |
| 20260905083006 | 25 | 209 | 0.0 | 3.2 | 0.00 | 0.00 | 0.00 | 87 | 1014.3 |
| 20260905081514 | 25 | 249 | 0.0 | 3.2 | 0.00 | 0.00 | 0.00 | 86 | 1014.4 |
| 20260905080019 | 25 | 105 | 0.0 | 3.2 | 0.00 | 0.00 | 0.00 | 86 | 1014.5 |
| 20260905074503 | 25 | 242 | 0.0 | 3.2 | 0.00 | 0.00 | 0.00 | 85 | 1014.5 |
| 20260905073007 | 25 | 277 | 0.0 | 3.2 | 0.00 | 0.00 | 0.00 | 84 | 1014.7 |
| 20260905071510 | 25 | 268 | 0.0 | 4.8 | 0.00 | 0.00 | 0.00 | 83 | 1014.7 |
| 20260905070016 | 26 | 170 | 0.0 | 3.2 | 0.00 | 0.00 | 0.00 | 82 | 1014.9 |
| 20260905064526 | 26 | 204 | 0.0 | 3.2 | 0.00 | 0.00 | 0.00 | 81 | 1014.9 |
| 20260905063006 | 26 | 119 | 0.0 | 6.4 | 0.00 | 0.00 | 0.00 | 81 | 1014.9 |
| 20260905061508 | 26 | 128 | 0.0 | 3.2 | 0.00 | 0.00 | 0.00 | 79 | 1015.0 |
| 20260905060016 | 26 | 164 | 0.0 | 4.8 | 0.00 | 0.00 | 0.00 | 79 | 1015.1 |
| 20260905054528 | 26 | 250 | 0.0 | 6.4 | 0.00 | 0.00 | 0.00 | 78 | 1015.0 |
| 20260905053032 | 26 | 116 | 0.0 | 3.2 | 0.00 | 0.00 | 0.00 | 77 | 1014.9 |
| 20260905051521 | 27 | 286 | 0.0 | 6.4 | 0.00 | 0.00 | 0.00 | 76 | 1015.0 |
| 20260905050013 | 27 | 338 | 0.0 | 8.0 | 0.00 | 0.00 | 0.00 | 75 | 1015.0 |
| 20260905044519 | 27 | 121 | 1.6 | 12.9 | 0.00 | 0.00 | 0.00 | 75 | 1014.9 |
| 20260905043028 | 27 | 134 | 0.0 | 14.5 | 0.00 | 0.00 | 0.00 | 74 | 1014.9 |
| 20260905041529 | 27 | 128 | 0.0 | 4.8 | 0.00 | 0.00 | 0.00 | 74 | 1014.9 |
| 20260905040010 | 27 | 167 | 1.6 | 6.4 | 0.00 | 0.00 | 0.00 | 74 | 1014.8 |
| 20260905034517 | 27 | 246 | 0.0 | 6.4 | 0.00 | 0.00 | 0.00 | 72 | 1014.9 |
| 20260905033025 | 27 | 99 | 0.0 | 3.2 | 0.00 | 0.00 | 0.00 | 72 | 1014.7 |
| 20260905031532 | 27 | 118 | 0.0 | 6.4 | 0.00 | 0.00 | 0.00 | 71 | 1014.7 |
| 20260905030034 | 27 | 126 | 0.0 | 3.2 | 0.00 | 0.00 | 0.00 | 70 | 1014.5 |
| 20260905024516 | 28 | 91 | 0.0 | 6.4 | 0.00 | 0.00 | 0.00 | 69 | 1014.3 |
| 20260905023025 | 28 | 82 | 0.0 | 6.4 | 0.00 | 0.00 | 0.00 | 70 | 1014.2 |
| 20260905021527 | 28 | 144 | 0.0 | 6.4 | 0.00 | 0.00 | 0.00 | 71 | 1013.9 |
| 20260905020027 | 28 | 103 | 0.0 | 6.4 | 0.00 | 0.00 | 0.00 | 70 | 1013.8 |
| 20260905014534 | 28 | 149 | 0.0 | 3.2 | 0.00 | 0.00 | 0.00 | 70 | 1013.8 |
| 20260905013016 | 28 | 111 | 1.6 | 6.4 | 0.00 | 0.00 | 0.00 | 69 | 1013.7 |
| 20260905011512 | 28 | 98 | 1.6 | 9.7 | 0.00 | 0.00 | 0.00 | 70 | 1013.7 |
| 20260905010008 | 28 | 24 | 0.0 | 3.2 | 0.00 | 0.00 | 0.00 | 70 | 1013.4 |
| 20260905004514 | 29 | 78 | 0.0 | 6.4 | 0.00 | 0.00 | 0.00 | 69 | 1013.2 |
| 20260905003026 | 30 | 159 | 0.0 | 4.8 | 0.00 | 0.00 | 0.00 | 67 | 1013.1 |
| 20260905001509 | 30 | 154 | 0.0 | 8.0 | 0.00 | 0.00 | 0.00 | 66 | 1013.1 |
| 20260905000034 | 30 | 69 | 1.6 | 9.7 | 0.00 | 0.00 | 0.00 | 65 | 1012.9 |
| 20260904234505 | 30 | 256 | 0.0 | 14.5 | 0.00 | 0.00 | 0.00 | 65 | 1012.9 |
| 20260904233011 | 30 | 146 | 0.0 | 8.0 | 0.00 | 0.00 | 0.00 | 64 | 1012.9 |
| 20260904231519 | 31 | 115 | 1.6 | 11.3 | 0.00 | 0.00 | 0.00 | 62 | 1012.9 |
| 20260904230045 | 31 | 166 | 3.2 | 14.5 | 0.00 | 0.00 | 0.00 | 60 | 1013.0 |
| 20260904224530 | 33 | 221 | 1.6 | 9.7 | 0.00 | 0.00 | 0.00 | 48 | 1012.7 |
| 20260904223007 | 34 | 89 | 1.6 | 14.5 | 0.00 | 0.00 | 0.00 | 48 | 1012.7 |
| 20260904221515 | 33 | 115 | 1.6 | 14.5 | 0.00 | 0.00 | 0.00 | 51 | 1012.7 |
| 20260904220002 | 34 | 250 | 1.6 | 6.4 | 0.00 | 0.00 | 0.00 | 49 | 1012.8 |
| 20260904214504 | 33 | 350 | 1.6 | 12.9 | 0.00 | 0.00 | 0.00 | 46 | 1013.2 |
| 20260904213007 | 35 | 99 | 1.6 | 11.3 | 0.00 | 0.00 | 0.00 | 41 | 1013.3 |
| 20260904211513 | 35 | 33 | 1.6 | 12.9 | 0.00 | 0.00 | 0.00 | 45 | 1013.5 |
| 20260904210026 | 34 | 103 | 1.6 | 11.3 | 0.00 | 0.00 | 0.00 | 45 | 1013.7 |
| 20260904204526 | 34 | 257 | 3.2 | 11.3 | 0.00 | 0.00 | 0.00 | 46 | 1013.9 |
| 20260904203006 | 34 | 201 | 0.0 | 11.3 | 0.00 | 0.00 | 0.00 | 44 | 1014.1 |
| 20260904201509 | 35 | 292 | 1.6 | 11.3 | 0.00 | 0.00 | 0.00 | 46 | 1014.3 |
| 20260904200037 | 33 | 119 | 1.6 | 12.9 | 0.00 | 0.00 | 0.00 | 48 | 1014.5 |
| 20260904194534 | 34 | 164 | 4.8 | 11.3 | 0.00 | 0.00 | 0.00 | 47 | 1014.6 |
| 20260904193026 | 33 | 226 | 1.6 | 6.4 | 0.00 | 0.00 | 0.00 | 55 | 1014.9 |
| 20260904191514 | 32 | 273 | 1.6 | 11.3 | 0.00 | 0.00 | 0.00 | 60 | 1015.0 |
| 20260904190016 | 30 | 109 | 1.6 | 8.0 | 0.00 | 0.00 | 0.00 | 65 | 1015.3 |